Location: Fond Mahaut
(18.0707°N, 63.0465°W)
Time: 01:23:27
(UTC+00:00)

Cosmos 2026 Rocket - Pass Details

Date: 08 December 2019
Orbit: 940 x 1000 km, 82.9° (Epoch: 28 January)

Event Time Altitude Azimuth Distance (km) Brightness Sun altitude
Rises 22:11:11 0° 179° (S) 3,622 7.3 -8.4°
Reaches altitude 10° 22:13:41 10° 178° (S) 2,670 6.6 -9.0°
Maximum altitude 22:19:45 76° 93° (E) 972 3.9 -10.3°
Drops below altitude 10° 22:25:48 10° 8° (N) 2,653 6.0 -11.7°
Sets 22:28:16 0° 7° (N) 3,597 6.7 -12.2°
